Location: Gungolding
(48.9246°N, 11.3502°E)
Time: 01:17:51
(UTC+02:00)

SR - All Passes

Search period start: 10 April 2020 00:00
Search period end: 20 April 2020 00:00
Orbit: 578 x 877 km, 66.7° (Epoch: 09 April)

Date Brightness Start Highest point End Pass type
(mag) Time Alt. Az. Time Alt. Az. Time Alt. Az.
10 Apr - 03:59:03 10° SSE 04:03:47 27° ESE 04:08:19 10° NE visible
10 Apr - 05:39:52 10° SW 05:45:34 64° NW 05:50:56 10° NNE visible
10 Apr - 07:24:40 10° WNW 07:28:37 19° NNW 07:32:24 10° NNE daylight
10 Apr - 09:11:45 10° NNW 09:12:49 11° N 09:13:53 10° N daylight
10 Apr - 10:54:23 10° NNW 10:57:11 15° NNE 10:59:53 10° NE daylight
10 Apr - 12:35:51 10° NNW 12:40:35 46° NE 12:44:55 10° ESE daylight
10 Apr - 14:18:22 10° NW 14:22:23 28° WSW 14:26:09 10° S daylight
11 Apr - 03:11:28 10° SE 03:14:29 15° ESE 03:17:25 10° ENE visible
11 Apr - 04:50:04 10° SSW 04:55:50 77° ESE 05:01:15 10° NE visible
11 Apr - 06:33:41 10° W 06:38:27 27° NW 06:42:58 10° NNE daylight
11 Apr - 08:20:18 10° NW 08:22:18 12° NNW 08:24:14 10° N daylight
11 Apr - 10:04:56 10° N 10:06:46 12° NNE 10:08:32 10° NE daylight
11 Apr - 11:46:19 10° NNW 11:50:35 28° NE 11:54:33 10° E daylight
11 Apr - 13:28:16 10° NW 13:32:58 55° WSW 13:37:17 10° SSE daylight
12 Apr - 04:00:49 10° S 04:06:15 44° ESE 04:11:24 10° NE visible
12 Apr - 05:43:03 10° WSW 05:48:25 41° NW 05:53:28 10° NNE visible
12 Apr - 07:28:50 10° WNW 07:31:52 15° NNW 07:34:48 10° NNE daylight
12 Apr - 09:15:21 10° N 09:16:15 10° N 09:17:09 10° NNE daylight
12 Apr - 10:56:51 10° NNW 11:00:25 19° NNE 11:03:47 10° ENE daylight
12 Apr - 12:38:29 10° NW 12:43:20 78° NE 12:47:47 10° SE daylight
12 Apr - 14:22:01 10° WNW 14:24:38 15° WSW 14:27:09 10° SW daylight
13 Apr - 03:12:13 10° SSE 03:16:48 25° ESE 03:21:13 10° ENE visible
13 Apr - 04:52:50 10° SW 04:58:33 67° NW 05:03:54 10° NNE visible
13 Apr - 06:37:33 10° WNW 06:41:33 20° NNW 06:45:22 10° NNE daylight
13 Apr - 08:24:42 10° NNW 08:25:43 10° N 08:26:43 10° N daylight
13 Apr - 10:07:26 10° NNW 10:10:06 14° NNE 10:12:39 10° NE daylight
13 Apr - 11:48:51 10° NNW 11:53:31 43° NE 11:57:49 10° ESE daylight
13 Apr - 13:31:18 10° NW 13:35:23 29° WSW 13:39:12 10° S daylight
14 Apr - 02:24:48 10° SE 02:27:31 14° ESE 02:30:10 10° ENE visible
14 Apr - 04:03:06 10° SSW 04:08:49 74° ESE 04:14:12 10° NE visible
14 Apr - 05:46:35 10° W 05:51:24 28° NW 05:55:56 10° NNE visible
14 Apr - 07:33:12 10° NW 07:35:12 12° NNW 07:37:10 10° N daylight
14 Apr - 09:18:01 10° N 09:19:39 11° NNE 09:21:15 10° NNE daylight
14 Apr - 10:59:20 10° NNW 11:03:30 27° NE 11:07:24 10° E daylight
14 Apr - 12:41:14 10° NW 12:45:57 58° WSW 12:50:15 10° SSE daylight
15 Apr - 03:13:53 10° S 03:19:15 42° ESE 03:24:20 10° NE visible
15 Apr - 04:55:59 10° WSW 05:01:23 43° NW 05:06:26 10° NNE visible
15 Apr - 06:41:42 10° WNW 06:44:47 15° NNW 06:47:45 10° NNE daylight
15 Apr - 08:28:29 10° N 08:29:09 10° N 08:29:49 10° N daylight
15 Apr - 10:09:52 10° NNW 10:13:19 18° NNE 10:16:35 10° ENE daylight
15 Apr - 11:51:29 10° NNW 11:56:18 74° NE 12:00:43 10° SE daylight
15 Apr - 13:34:52 10° WNW 13:37:39 16° WSW 13:40:20 10° SW daylight
16 Apr - 02:25:22 10° SSE 02:29:49 24° ESE 02:34:05 10° ENE visible
16 Apr - 04:05:49 10° SW 04:11:32 70° NW 04:16:51 10° NNE visible
16 Apr - 05:50:26 10° WNW 05:54:29 20° NNW 05:58:21 10° NNE visible
16 Apr - 07:37:39 10° NNW 07:38:36 10° N 07:39:33 10° N daylight
16 Apr - 09:20:28 10° N 09:23:00 14° NNE 09:25:26 10° NE daylight
16 Apr - 11:01:52 10° NNW 11:06:27 41° NE 11:10:42 10° ESE daylight
16 Apr - 12:44:15 10° NW 12:48:22 31° WSW 12:52:14 10° S daylight
17 Apr - 01:38:10 10° SE 01:40:33 13° ESE 01:42:53 10° E visible
17 Apr - 03:16:07 10° SSW 03:21:49 70° ESE 03:27:09 10° NE visible
17 Apr - 04:59:29 10° W 05:04:20 29° NW 05:08:54 10° NNE visible
17 Apr - 06:46:03 10° NW 06:48:06 12° NNW 06:50:06 10° N daylight
17 Apr - 08:31:06 10° N 08:32:33 11° N 08:33:58 10° NNE daylight
17 Apr - 10:12:21 10° NNW 10:16:26 26° NE 10:20:15 10° E daylight
17 Apr - 11:54:13 10° NW 11:58:54 62° WSW 12:03:14 10° SSE daylight
18 Apr - 02:26:57 10° S 02:32:15 40° ESE 02:37:15 10° NE visible
18 Apr - 04:08:56 10° WSW 04:14:20 45° NW 04:19:24 10° NNE visible
18 Apr - 05:54:34 10° WNW 05:57:41 15° NNW 06:00:43 10° NNE daylight
18 Apr - 07:41:42 10° N 07:42:03 10° N 07:42:21 10° N daylight
18 Apr - 09:22:54 10° NNW 09:26:14 18° NNE 09:29:23 10° ENE daylight
18 Apr - 11:04:27 10° NNW 11:09:15 70° NE 11:13:38 10° SE daylight
18 Apr - 12:47:43 10° WNW 12:50:39 17° WSW 12:53:27 10° SSW daylight
19 Apr - 01:38:31 10° SSE 01:42:50 22° ESE 01:46:58 10° ENE visible
19 Apr - 03:18:49 10° SW 03:24:30 74° NW 03:29:49 10° NNE visible
19 Apr - 05:03:19 10° W 05:07:25 21° NNW 05:11:18 10° NNE visible
19 Apr - 06:50:36 10° NNW 06:51:30 10° N 06:52:24 10° N daylight
19 Apr - 08:33:31 10° N 08:35:54 13° NNE 08:38:11 10° NE daylight
19 Apr - 10:14:52 10° NNW 10:19:23 39° NE 10:23:34 10° ESE daylight
19 Apr - 11:57:11 10° NW 12:01:21 33° WSW 12:05:15 10° S daylight
